Regional Weather Roundup
Issued by NWS

Home | Current Version | Previous Version | Graphics & Text | Print | Product List | Glossary On
Versions: 1 2 3 4 5 6 7 8 9 10 11 12 13 14 15 16 17 18 19 20 21 22 23 24 25 26 27 28 29 30 31 32 33 34 35 36 37 38 39 40 41 42 43 44 45 46 47 48 49 50
000
ASUS45 KBOU 171207
RWRCO

WEATHER ROUNDUP FOR COLORADO
NATIONAL WEATHER SERVICE DENVER/BOULDER CO
500 AM MST WED DEC 17 2014

NOTE: "FAIR" INDICATES FEW OR NO CLOUDS BELOW 12000 FEET WITH NO
SIGNIFICANT WEATHER AND/OR OBSTRUCTIONS TO VISIBILITY.

COZ001>005-013-030-031-171300-
...NORTHWEST COLORADO...

CITY           SKY/WX    TMP DP  RH WIND       PRES   REMARKS
CRAIG          CLOUDY    23  20  88 CALM      30.01F
HAYDEN         CLOUDY    27  23  86 E6        30.00F WCI  20
MEEKER         LGT SNOW  26  24  92 CALM      30.00F FOG
MOUNT WERNER   NOT AVBL
STEAMBOAT SPGS CLOUDY    22  20  93 CALM      30.00F
WALDEN         CLOUDY    18  14  86 SE5       29.98F WCI  11
$$

COZ006>008-011-171300-
...WEST CENTRAL VALLEYS...

CITY           SKY/WX    TMP DP  RH WIND       PRES   REMARKS
GRAND JUNCTION CLOUDY    31  29  92 CALM      30.01F
MONTROSE       CLOUDY    31  26  82 SW5       30.03F WCI  26
EAGLE          CLOUDY    18  16  93 CALM      30.08F
RIFLE          LGT SNOW  29  25  85 CALM      30.04F FOG
DELTA          CLOUDY    34  29  83 SE6       30.03S WCI  29
NUCLA          CLOUDY    32  28  86 CALM      30.03F
$$

COZ017>023-064>068-171300-
...SOUTHWEST COLORADO...

CITY           SKY/WX    TMP DP  RH WIND       PRES   REMARKS
DURANGO        CLOUDY    31  24  75 CALM      29.98F
CORTEZ         CLEAR     31  27  85 CALM      29.97F
PAGOSA SPRINGS CLOUDY    26  24  96 NE5       30.00F WCI  20
TELLURIDE      CLOUDY    29  25  85 CALM      30.02F
WOLF CREEK PAS PTCLDY    16  14  93 MISG      30.03S
$$

COZ009-010-012-014-032>034-037-058>063-171300-
...CENTRAL COLORADO...

CITY           SKY/WX    TMP DP  RH WIND       PRES   REMARKS
ASPEN          CLOUDY    23  19  85 S5        30.00S WCI  17
BUENA VISTA    CLOUDY    21  14  73 NW5       30.02S WCI  14
COPPER MTN     PTCLDY    19  12  73 S5        30.01F WCI  13
BERTHOUD PASS  FAIR      14   9  79 MISG      30.01S
COTTONWOOD PAS CLOUDY    27  16  63 CALM      30.00F
GUNNISON       PTCLDY    10   3  72 CALM      30.07F
KREMMLING      FLURRIES N/A N/A N/A CALM      30.07F
LEADVILLE      MOCLDY    12   7  80 CALM      29.99F
MONARCH PASS   MOCLDY    16  12  86 MISG      30.11S
SALIDA         CLOUDY    25  15  65 NW7       30.09S WCI  17
SUNLIGHT       LGT SNOW  25  23  93 CALM      30.02F
WILKERSON PASS CLOUDY    19  14  79 SW6       30.03F WCI  11
$$

COZ069>075-171300-
...SAN LUIS VALLEY/SANGRE DE CRISTO MOUNTAINS...

CITY           SKY/WX    TMP DP  RH WIND       PRES   REMARKS
ALAMOSA        MOCLDY    15  11  83 CALM      30.02F
LA VETA PASS   MOCLDY    21  14  73 S7        30.01S WCI  13
SAGUACHE       CLOUDY    23  12  63 NW10      30.03S WCI  12
$$

COZ035-036-038>040-171300-
...NORTHERN COLORADO FRONT RANGE...

CITY           SKY/WX    TMP DP  RH WIND       PRES   REMARKS
DENVER INTL AP MOCLDY    25  18  74 CALM      29.96F
DMNS CITY PARK   N/A     23  19  84 E2        29.97S
AURORA         MOCLDY    23  17  75 S8        29.96F WCI  14
FRONT RANGE AP PTCLDY    25  19  80 CALM      29.97R
ERIE MUNI ARPT   N/A     18  16  95 CALM      29.97F
BOULDER MUN AP PTCLDY    23  21  93 CALM      29.96F
CENTENNIAL     MOCLDY    27  18  69 CALM      29.95S
BROOMFIELD     PTCLDY    27  23  86 CALM      29.95F
FORT COLLINS   MOCLDY    19  18  93 CALM      29.99S
LONGMONT       MOCLDY    22  19  89 CALM      29.99F
$$

COZ041-046-047-076>085-087-088-171300-
...PIKES PEAK/PALMER DIVIDE AND SOUTHERN FOOTHILLS...

CITY           SKY/WX    TMP DP  RH WIND       PRES   REMARKS
COLO. SPRINGS  CLOUDY    22  16  78 NE7       29.96R WCI  13
A. F. ACADEMY  MOCLDY    28  18  66 N9        29.94F WCI  19
ELLICOTT       NOT AVBL
FALCON         CLOUDY    31  19  60 NW7       29.96S WCI  25
FORT CARSON    CLOUDY    24  17  75 SW1       29.95S
LIMON          CLOUDY    14  11  87 N3        29.97F
MONUMENT HILL  MOCLDY    28  18  64 SW7       29.95S WCI  21
TRINIDAD       MOCLDY    24  20  84 SW3       29.97S
$$

COZ042>045-048>051-090-091-171300-
...NORTHEAST COLORADO...

CITY           SKY/WX    TMP DP  RH WIND       PRES   REMARKS
GREELEY ARPT   CLOUDY    16   9  73 NE3       29.98F
AKRON          FOG       17  16  95 S12       30.01R VSB 1/2 WCI   4
BURLINGTON     CLOUDY    23  21  92 E7        30.03F FOG     WCI  15
WRAY           CLOUDY    24  24 100 SE8       30.09S WCI  14
STERLING       CLOUDY    21  19  93 SW6       30.05R FOG     WCI  14
HOLYOKE        NOT AVBL
FORT MORGAN    MOCLDY     9   6  89 N5        30.02S WCI   1
$$

COZ086-089-092>099-171300-
...SOUTHEAST COLORADO...

CITY           SKY/WX    TMP DP  RH WIND       PRES   REMARKS
PUEBLO         CLOUDY    19  15  84 W5        29.99  WCI  12
LA JUNTA       CLOUDY    24  20  84 W3        30.01R
LAMAR          CLOUDY    27  24  89 W7        30.00S WCI  19
SPRINGFIELD      N/A     26  23  88 CALM      29.98F
$$



USA.gov is the U.S. government's official web portal to all federal, state and local government web resources and services.